When you browse on this site, cookies collect data to enhance your experience and personalize the content and advertising you see.
Visit our Privacy Policy to learn more. By continuing to use the site, you agree to this use of cookies and data.
  • In France
  • List of Countries
  • For 7 days
  • Water Temperature
  • Satellite Maps
  • Weather Map
  • Weather Widgets
  • user-avatar
    Login

    Hourly Weather Etchmiadzin

    Today, 21 November, Wednesday

    Time Temperature Precipitation Wind Pressure Humidity
    00:00 +9°C° 0 mm 1 mps 686 mmHg 62%
    01:00 +9°C° 0 mm 1 mps 685 mmHg 63%
    02:00 +8°C° 0 mm 1 mps 685 mmHg 64%
    03:00 +7°C° 0 mm 2 mps 685 mmHg 64%
    04:00 +7°C° 0 mm 2 mps 685 mmHg 65%
    05:00 +7°C° 0 mm 2 mps 684 mmHg 66%
    06:00 +7°C° 0 mm 2 mps 684 mmHg 67%
    07:00 +8°C° 0 mm 2 mps 684 mmHg 64%
    08:00 +9°C° 0 mm 2 mps 684 mmHg 60%
    09:00 +10°C° 0 mm 2 mps 684 mmHg 57%
    10:00 +12°C° 0 mm 2 mps 684 mmHg 55%
    11:00 +12°C° 0 mm 3 mps 683 mmHg 52%
    12:00 +13°C° 0 mm 3 mps 683 mmHg 50%
    13:00 +13°C° 0 mm 3 mps 683 mmHg 50%
    14:00 +13°C° 0 mm 3 mps 683 mmHg 50%
    15:00 +13°C° 0 mm 3 mps 682 mmHg 50%
    16:00 +11°C° 0.1 mm 3 mps 682 mmHg 54%
    17:00 +10°C° 0.1 mm 2 mps 682 mmHg 57%
    18:00 +9°C° 0.1 mm 2 mps 683 mmHg 61%
    19:00 +9°C° 0.1 mm 2 mps 683 mmHg 62%
    20:00 +9°C° 0.1 mm 2 mps 683 mmHg 64%
    21:00 +9°C° 0.1 mm 2 mps 683 mmHg 65%
    22:00 +9°C° 0.1 mm 2 mps 682 mmHg 66%
    23:00 +8°C° 0.1 mm 2 mps 682 mmHg 68%

    Tomorrow, 22 November, Thursday

    Time Temperature Precipitation Wind Pressure Humidity
    00:00 +8°C° 0.1 mm 2 mps 682 mmHg 69%
    01:00 +8°C° 0.2 mm 2 mps 682 mmHg 70%
    02:00 +8°C° 0.2 mm 2 mps 682 mmHg 71%
    03:00 +8°C° 0.2 mm 2 mps 682 mmHg 72%
    04:00 +8°C° 0.4 mm 2 mps 682 mmHg 73%
    05:00 +8°C° 0.4 mm 2 mps 682 mmHg 74%
    06:00 +7°C° 0.4 mm 2 mps 682 mmHg 76%
    07:00 +8°C° 0.4 mm 2 mps 682 mmHg 74%
    08:00 +8°C° 0.4 mm 2 mps 682 mmHg 73%
    09:00 +9°C° 0.4 mm 3 mps 682 mmHg 71%
    10:00 +10°C° 0.3 mm 3 mps 682 mmHg 69%
    11:00 +10°C° 0.3 mm 3 mps 681 mmHg 67%
    12:00 +11°C° 0.3 mm 3 mps 681 mmHg 65%
    13:00 +11°C° 0.3 mm 3 mps 681 mmHg 65%
    14:00 +11°C° 0.3 mm 3 mps 681 mmHg 65%
    15:00 +11°C° 0.3 mm 3 mps 680 mmHg 65%
    16:00 +11°C° 0.3 mm 3 mps 681 mmHg 68%
    17:00 +10°C° 0.3 mm 2 mps 681 mmHg 71%
    18:00 +9°C° 0.3 mm 2 mps 681 mmHg 73%
    19:00 +9°C° 0.4 mm 2 mps 681 mmHg 75%
    20:00 +9°C° 0.4 mm 2 mps 681 mmHg 76%
    21:00 +9°C° 0.4 mm 2 mps 682 mmHg 77%
    22:00 +9°C° 0.3 mm 2 mps 682 mmHg 78%
    23:00 +9°C° 0.3 mm 1 mps 682 mmHg 78%

    Day after tomorrow, 23 November, Friday

    Time Temperature Precipitation Wind Pressure Humidity
    00:00 +9°C° 0.3 mm 1 mps 682 mmHg 79%
    01:00 +9°C° 0.3 mm 1 mps 682 mmHg 79%
    02:00 +9°C° 0.3 mm 1 mps 682 mmHg 80%
    03:00 +9°C° 0.3 mm 1 mps 682 mmHg 80%
    04:00 +9°C° 0.2 mm 1 mps 682 mmHg 80%
    05:00 +8°C° 0.2 mm 1 mps 682 mmHg 80%
    06:00 +8°C° 0.2 mm 1 mps 682 mmHg 81%
    07:00 +9°C° 0.2 mm 1 mps 683 mmHg 78%
    08:00 +10°C° 0.2 mm 1 mps 683 mmHg 74%
    09:00 +9°C° 0.2 mm 2 mps 684 mmHg 71%
    10:00 +10°C° 0.2 mm 2 mps 684 mmHg 69%
    11:00 +12°C° 0.2 mm 2 mps 684 mmHg 66%
    12:00 +12°C° 0.2 mm 2 mps 684 mmHg 64%
    13:00 +12°C° 0.1 mm 2 mps 684 mmHg 62%
    14:00 +12°C° 0.1 mm 2 mps 684 mmHg 61%
    15:00 +13°C° 0.1 mm 2 mps 684 mmHg 60%
    16:00 +12°C° 0.1 mm 2 mps 684 mmHg 62%
    17:00 +11°C° 0.1 mm 1 mps 684 mmHg 65%
    18:00 +10°C° 0.1 mm 1 mps 685 mmHg 67%
    19:00 +9°C° 0.1 mm 1 mps 685 mmHg 68%
    20:00 +9°C° 0.1 mm 1 mps 686 mmHg 69%
    21:00 +9°C° 0.1 mm 1 mps 686 mmHg 70%
    22:00 +8°C° 0 mm 1 mps 686 mmHg 71%
    23:00 +8°C° 0 mm 1 mps 687 mmHg 72%

    24 November, Saturday

    Time Temperature Precipitation Wind Pressure Humidity
    00:00 +7°C° 0 mm 1 mps 687 mmHg 73%
    01:00 +7°C° 0 mm 1 mps 687 mmHg 74%
    02:00 +7°C° 0 mm 1 mps 688 mmHg 75%
    03:00 +7°C° 0 mm 1 mps 688 mmHg 76%
    04:00 +7°C° 0 mm 1 mps 688 mmHg 77%
    05:00 +6°C° 0 mm 2 mps 688 mmHg 78%
    06:00 +5°C° 0 mm 2 mps 689 mmHg 79%
    07:00 +6°C° 0 mm 2 mps 689 mmHg 75%
    08:00 +7°C° 0 mm 2 mps 690 mmHg 72%
    09:00 +8°C° 0 mm 2 mps 691 mmHg 68%
    10:00 +10°C° 0 mm 1 mps 691 mmHg 65%
    11:00 +10°C° 0 mm 1 mps 690 mmHg 62%
    12:00 +11°C° 0 mm 1 mps 690 mmHg 59%
    13:00 +10°C° 0 mm 2 mps 690 mmHg 58%
    14:00 +10°C° 0 mm 2 mps 690 mmHg 58%
    15:00 +10°C° 0 mm 2 mps 690 mmHg 57%
    16:00 +9°C° 0 mm 2 mps 691 mmHg 61%
    17:00 +9°C° 0 mm 2 mps 691 mmHg 65%
    18:00 +8°C° 0 mm 2 mps 691 mmHg 68%
    19:00 +7°C° 0 mm 2 mps 692 mmHg 70%
    20:00 +7°C° 0 mm 2 mps 692 mmHg 71%
    21:00 +7°C° 0 mm 2 mps 692 mmHg 73%
    22:00 +6°C° 0 mm 2 mps 692 mmHg 74%
    23:00 +7°C° 0 mm 1 mps 692 mmHg 74%

    25 November, Sunday

    Time Temperature Precipitation Wind Pressure Humidity
    00:00 +7°C° 0 mm 1 mps 691 mmHg 75%
    01:00 +6°C° 0 mm 1 mps 691 mmHg 76%
    02:00 +6°C° 0 mm 1 mps 690 mmHg 76%
    03:00 +6°C° 0 mm 1 mps 690 mmHg 77%
    04:00 +6°C° 0 mm 1 mps 690 mmHg 77%
    05:00 +5°C° 0 mm 1 mps 689 mmHg 78%
    06:00 +5°C° 0 mm 1 mps 689 mmHg 78%
    07:00 +6°C° 0 mm 1 mps 689 mmHg 74%
    08:00 +7°C° 0 mm 1 mps 688 mmHg 70%
    09:00 +8°C° 0 mm 1 mps 688 mmHg 66%
    10:00 +9°C° 0 mm 1 mps 688 mmHg 63%
    11:00 +10°C° 0 mm 1 mps 687 mmHg 60%
    12:00 +11°C° 0 mm 1 mps 686 mmHg 57%
    13:00 +11°C° 0 mm 1 mps 685 mmHg 56%
    14:00 +11°C° 0 mm 1 mps 685 mmHg 55%
    15:00 +11°C° 0 mm 1 mps 684 mmHg 55%
    16:00 +10°C° 0 mm 1 mps 684 mmHg 58%
    17:00 +9°C° 0 mm 1 mps 684 mmHg 61%
    18:00 +8°C° 0 mm 1 mps 684 mmHg 64%
    19:00 +7°C° 0 mm 1 mps 684 mmHg 64%
    20:00 +6°C° 0 mm 0 mps 684 mmHg 64%
    21:00 +6°C° 0 mm 0 mps 684 mmHg 64%
    22:00 +6°C° 0 mm 0 mps 684 mmHg 64%
    23:00 +7°C° 0 mm 1 mps 684 mmHg 63%

    26 November, Monday

    Time Temperature Precipitation Wind Pressure Humidity
    00:00 +6°C° 0 mm 1 mps 683 mmHg 63%
    01:00 +6°C° 0 mm 1 mps 683 mmHg 64%
    02:00 +6°C° 0 mm 1 mps 683 mmHg 64%
    03:00 +6°C° 0 mm 1 mps 683 mmHg 65%
    04:00 +6°C° 0.1 mm 1 mps 683 mmHg 66%
    05:00 +6°C° 0.1 mm 1 mps 684 mmHg 67%
    06:00 +6°C° 0.1 mm 1 mps 684 mmHg 68%
    07:00 +7°C° 0.1 mm 1 mps 684 mmHg 66%
    08:00 +8°C° 0.1 mm 1 mps 684 mmHg 64%
    09:00 +9°C° 0.1 mm 1 mps 684 mmHg 62%
    10:00 +9°C° 0 mm 1 mps 684 mmHg 60%
    11:00 +9°C° 0 mm 2 mps 684 mmHg 59%
    12:00 +10°C° 0 mm 2 mps 684 mmHg 57%
    13:00 +10°C° 0 mm 2 mps 683 mmHg 56%
    14:00 +10°C° 0 mm 2 mps 683 mmHg 56%
    15:00 +10°C° 0 mm 2 mps 683 mmHg 56%
    16:00 +9°C° 0 mm 2 mps 683 mmHg 59%
    17:00 +8°C° 0 mm 2 mps 684 mmHg 63%
    18:00 +7°C° 0 mm 2 mps 684 mmHg 66%
    19:00 +6°C° 0 mm 2 mps 684 mmHg 67%
    20:00 +6°C° 0 mm 2 mps 685 mmHg 68%
    21:00 +6°C° 0 mm 2 mps 685 mmHg 68%
    22:00 +5°C° 0 mm 2 mps 685 mmHg 69%
    23:00 +5°C° 0 mm 2 mps 685 mmHg 70%
    Show more